Weather History for Kingston, Jamaica

Change the Weather History Date:

Sunday, August 5, 2012

  Actual Average Record
Temperature  
Mean Temperature 84 °F -  
Max Temperature 92 °F 88 °F 95 °F (2005)
Min Temperature 75 °F 79 °F 75 °F (2007)
Cooling Degree Days 18    
Growing Degree Days 34 (Base 50)    
Moisture  
Dew Point 74 °F    
Average Humidity 78    
Maximum Humidity 100    
Minimum Humidity 42    
Precipitation  
Precipitation 1.73 in - - ()
Sea Level Pressure  
Sea Level Pressure 29.90 in    
Wind  
Wind Speed 14 mph ()    
Max Wind Speed 63 mph    
Max Gust Speed -    
Visibility 6.4 miles    
Events Rain , Thunderstorm    
Averages and records for this station are not official NWS values.
T = Trace of Precipitation, MM = Missing Value Source: Averaged Metar Reports

Daily Weather History Graph

Daily Weather History Graph

Search for Another Location

Airport:

Trip Planner

Search our weather history database for the weather conditions in past years. The results will help you decide how hot, cold, wet, or windy it might be!

Date:

Astronomy

Aug. 05, 2012 Rise Set
Actual Time 5:47 AM EST 6:38 PM EST
Civil Twilight 5:24 AM EST 7:01 PM EST
Nautical Twilight 4:57 AM EST 7:28 PM EST
Astronomical Twilight 4:29 AM EST 7:56 PM EST
Moon 9:03 PM EST (8/5) 8:50 AM EST (8/5)
Length of Visible Light 13h 37m
Length of Day
12h 51m
Waning Gibbous, 86% of the Moon is Illuminated
Aug 5
Waning Gibbous
Aug 9
Last Quarter
Aug 17
New
Aug 24
First Quarter
Aug 31
Full

Hourly Weather History & Observations

Time (EST) Temp. Heat Index Dew Point Humidity Pressure Visibility Wind Dir Wind Speed Gust Speed Precip Events Conditions
12:00 AM 84.2 °F 94.1 °F 77.0 °F 79% 29.92 in - South 6.9 mph - N/A Thunderstorm Partly Cloudy
1:00 AM 85 °F - 78 °F 74% 29.91 in 12 mi Calm Calm - - Rain Light Rain Showers
1:00 AM - - - N/A% - - SSW 3.5 mph - N/A   Unknown
2:00 AM 84.2 °F 92.3 °F 75.2 °F 74% 29.89 in - WNW 3.5 mph - N/A Thunderstorm Partly Cloudy
3:00 AM 78.8 °F - 77.0 °F 94% 29.89 in 6.2 mi NNW 50.6 mph - N/A Rain , Thunderstorm Light Thunderstorms and Rain
4:00 AM 80 °F - 75 °F 80% 29.89 in 12 mi Calm Calm - - Rain Light Rain
4:00 AM 78.8 °F - 77.0 °F 94% 29.89 in - North 4.6 mph - N/A Rain Light Rain
5:00 AM 80.6 °F 86.2 °F 75.2 °F 84% 29.86 in 6.2 mi NW 63.3 mph - N/A   Mostly Cloudy
6:00 AM 82.4 °F 88.2 °F 73.4 °F 74% 29.86 in 6.2 mi ESE 178.4 mph - N/A   Partly Cloudy
7:00 AM 82.4 °F 89.5 °F 75.2 °F 79% 29.89 in 6.2 mi North 8.1 mph - N/A   Partly Cloudy
7:12 AM 83 °F - 75 °F 71% 29.89 in 14 mi North 8.1 mph - -   Partly Cloudy
8:00 AM 84.2 °F 94.1 °F 77.0 °F 79% 29.89 in 6.2 mi NNE 6.9 mph - N/A   Partly Cloudy
8:47 AM 87.8 °F 92.6 °F 69.8 °F 55% 29.89 in - East 21.9 mph - N/A   Mostly Cloudy
9:00 AM 86.0 °F 91.8 °F 71.6 °F 62% 29.89 in - East 23.0 mph - N/A   Mostly Cloudy
10:00 AM 87 °F - 70 °F 48% 29.92 in 14 mi East 12.7 mph - -   Haze
10:00 AM 86.0 °F 90.4 °F 69.8 °F 58% 29.92 in - East 21.9 mph - N/A   Partly Cloudy
11:00 AM 89.6 °F 94.7 °F 69.8 °F 52% 29.89 in - East 20.7 mph - N/A   Scattered Clouds
12:00 PM 87.8 °F 92.6 °F 69.8 °F 55% 29.92 in 6.2 mi East 18.4 mph - N/A   Mostly Cloudy
12:48 PM 87.8 °F 95.6 °F 73.4 °F 62% 29.89 in 6.2 mi ESE 26.5 mph - N/A   Mostly Cloudy
1:00 PM 91 °F - 71 °F 42% 29.90 in 12 mi East 12.7 mph - - Rain Light Rain Showers
1:00 PM 91.4 °F 98.4 °F 71.6 °F 52% 29.89 in - East 17.3 mph - N/A   Mostly Cloudy
1:48 PM 87.8 °F 95.6 °F 73.4 °F 62% 29.89 in 2.5 mi ESE 26.5 mph - N/A   Mostly Cloudy
2:00 PM 77.0 °F - 75.2 °F 94% 29.92 in 1.2 mi ESE 36.8 mph - N/A Rain Heavy Rain Showers
2:28 PM 77.0 °F - 71.6 °F 83% 29.92 in 1.9 mi ESE 23.0 mph - N/A Rain Heavy Rain Showers
3:00 PM 77.0 °F - 73.4 °F 89% 29.89 in 3.1 mi East 21.9 mph - N/A Rain Light Rain Showers
4:00 PM 78 °F - 70 °F 70% 29.90 in 9 mi Calm Calm - - Rain Light Rain
4:00 PM 77.0 °F - 69.8 °F 78% 29.89 in - East 10.4 mph - N/A Rain Light Rain
5:00 PM 78.8 °F - 73.4 °F 83% 29.89 in - ESE 17.3 mph - N/A Rain Rain Showers
5:20 PM 75.2 °F - 73.4 °F 94% 29.92 in 0.3 mi ESE 17.3 mph - N/A Rain Heavy Rain Showers
5:45 PM 75.2 °F - 73.4 °F 94% 29.89 in - East 17.3 mph - N/A Rain Light Rain Showers
6:00 PM 78.8 °F - 69.8 °F 74% 29.89 in - East 16.1 mph - N/A Rain Light Rain
7:00 PM 75 °F - 75 °F 99% 29.94 in 0 mi Calm Calm - - Rain Heavy Rain Showers
7:00 PM 75.2 °F - 75.2 °F 100% 29.92 in 0.3 mi ENE 10.4 mph - N/A Rain Heavy Rain Showers
7:16 PM 77.0 °F - 75.2 °F 94% 29.92 in - ENE 13.8 mph - N/A Rain Light Rain Showers
8:00 PM 80.6 °F 86.2 °F 75.2 °F 84% 29.92 in - East 16.1 mph - N/A Rain Light Rain
9:00 PM 80.6 °F 86.2 °F 75.2 °F 84% 29.92 in - East 16.1 mph - N/A Rain Light Rain
10:00 PM 79 °F - 76 °F 89% 29.94 in 9 mi East 12.7 mph - - Rain Light Rain
10:00 PM 78.8 °F - 77.0 °F 94% 29.92 in - East 15.0 mph - N/A Rain Light Rain
10:22 PM 78.8 °F - 77.0 °F 94% 29.92 in - ESE 13.8 mph - N/A Rain , Thunderstorm Light Thunderstorms and Rain
11:00 PM 75.2 °F - 75.2 °F 100% 29.95 in - ESE 28.8 mph - N/A Rain Heavy Rain Showers
11:13 PM - - - N/A% 29.95 in - ESE 25.3 mph - N/A Rain Heavy Rain Showers